Tracking 19164 objects as of 20-May-2018
HD Live streaming from Space Station
objects crossing your sky now

FENGYUN 1C DEB

Track FENGYUN 1C DEB now!
10-day predictions


NORAD ID: 30390
Int'l Code: 1999-025ADD
Perigee: 792.0 km
Apogee: 915.6 km
Inclination: 99.0 °
Period: 101.9 minutes
Semi major axis: 7224 km
RCS: 0.041 m2 (small)
Launch date: May 10, 1999
Source: People's Republic of China (PRC)
Launch site: Taiyaun Space Center, China (TSC)

Note: This is SATELLITE DEBRIS
aabbcc
Your satellite tracking list
Your tracking list is empty




NASA's NSSDC Master Catalog

Two Line Element Set (TLE):
1 30390U 99025ADD 18140.61125264 +.00000548 +00000-0 +30269-3 0  9991
2 30390 099.0166 175.5658 0085580 127.5840 351.4699 14.13717743582277
Source of the keplerian elements: AFSPC